Location: Hylvaty SDH
(49.9612°N, 16.4057°E)
Time: 11:58:05
(UTC+01:00)

A-11 Canister half - Pass Details

Date: 05 October 2020
Orbit: 1526 x 1683 km, 47.3° (Epoch: 28 October)

Event Time Altitude Azimuth Distance (km) Brightness Sun altitude
Rises 05:05:19 0° 288° (WNW) 4,731 - -19.2°
Reaches altitude 10° 05:09:15 10° 274° (W) 3,767 - -18.6°
Exits shadow 05:15:01 21° 236° (SW) 2,994 10.0 -17.7°
Maximum altitude 05:15:53 22° 229° (SW) 2,983 10.0 -17.6°
Drops below altitude 10° 05:22:40 10° 184° (S) 3,844 10.9 -16.5°
Sets 05:26:47 0° 170° (S) 4,853 11.6 -15.9°
